Simultaneous Nadir Overpasses (SNOs) Predictions

Prediction of SNOs between GOES-15 and METOP-A Satellite Orbit:

Table of predicted SNOs for the next 14.0 days since TLE Epoch: 3/30/2017
Index Date Time (GOES-15) GOES-15 Lat,Lon METOP-A Lat,Lon Distance(km) Time Diff (sec)
1 04/01/2017 06:36:50 0.01,-135.21 -0.43,-137.15 220.39 80
2 04/02/2017 06:18:51 0.01,-135.24 0.68,-132.15 351.76 80
3 04/03/2017 18:37:42 -0.01,-135.26 0.34,-136.71 166.07 80
4 04/04/2017 18:14:22 -0.01,-135.29 -0.78,-131.72 405.57 80
5 04/06/2017 06:33:24 0.02,-135.34 -0.19,-136.33 112.72 80
6 04/07/2017 06:15:24 0.01,-135.36 0.92,-131.34 459.08 80
7 04/08/2017 18:34:16 -0.02,-135.38 0.09,-135.90 58.90 80
8 04/11/2017 06:29:56 0.02,-135.45 0.00,-135.50 6.45 80
9 04/13/2017 18:28:08 -0.02,-135.48 -0.10,-135.07 46.26 80




NCC Satellite Simultaneous Nadir Overpasses (SNOs) Prediction Service
